Location: Alafon
(8.4500°N, 4.2333°E)
Time: 14:50:34
(UTC+00:00)

Vanguard 1 Rocket - Pass Details

Date: 30 July 2021
Orbit: 650 x 4226 km, 34.3° (Epoch: 23 September)

Event Time Altitude Azimuth Distance (km) Brightness Sun altitude
Exits shadow 03:55:32 - 203° (SSW) 6,885 11.4 -23.7°
Reaches altitude 10° 03:58:07 10° 198° (SSW) 6,657 11.4 -23.1°
Maximum altitude 04:17:25 29° 145° (SE) 5,910 11.6 -18.7°
Drops below altitude 10° 04:37:08 10° 93° (E) 6,967 13.0 -14.2°
Sets 04:43:15 0° 83° (E) 7,608 13.8 -12.8°
